Location: Marse
(42.1502°N, 110.9866°W)
Time: 08:50:20
(UTC+00:00)

SO-50 - Visible Passes

Search period start: 01 July 2022 00:00
Search period end: 11 July 2022 00:00
Orbit: 586 x 697 km, 64.6° (Epoch: 30 June)

Date Brightness Start Highest point End Pass type
(mag) Time Alt. Az. Time Alt. Az. Time Alt. Az.
01 Jul ? 06:52:16 25° E 06:52:16 25° E 06:55:08 10° NE visible
01 Jul ? 08:29:49 30° W 08:31:19 38° NW 08:35:51 10° NNE visible
02 Jul ? 07:15:40 64° E 07:15:40 64° E 07:20:06 10° NE visible
02 Jul ? 08:53:13 12° W 08:56:12 20° NW 08:59:49 10° N visible
03 Jul ? 06:01:27 16° E 06:01:27 16° E 06:03:09 10° ENE visible
03 Jul ? 07:39:00 48° W 07:39:48 54° NW 07:44:34 10° NNE visible
03 Jul ? 09:19:37 10° NW 09:21:22 12° NNW 09:23:06 10° N visible
04 Jul ? 06:24:43 41° E 06:24:43 41° E 06:28:32 10° NE visible
04 Jul ? 08:02:16 19° W 08:04:34 27° NW 08:08:42 10° NNE visible
05 Jul ? 05:10:20 10° E 05:10:20 10° E 05:10:34 10° E visible
05 Jul ? 06:47:53 71° WSW 06:48:20 80° WNW 06:53:13 10° NNE visible
05 Jul ? 08:26:48 10° WNW 08:29:35 15° NW 08:32:25 10° N visible
06 Jul ? 05:33:23 28° E 05:33:23 28° E 05:36:50 10° NE visible
06 Jul ? 07:10:55 25° W 07:12:59 37° NW 07:17:30 10° NNE visible
07 Jul ? 05:56:16 60° S 05:56:57 70° ESE 06:01:46 10° NE visible
07 Jul ? 07:34:24 10° W 07:37:53 20° NW 07:41:27 10° N visible
08 Jul ? 04:41:26 20° ESE 04:41:27 20° ESE 04:44:53 10° ENE visible
08 Jul ? 06:18:56 25° WSW 06:21:27 52° NW 06:26:13 10° NNE visible
08 Jul ? 08:01:25 10° NW 08:03:02 11° NNW 08:04:40 10° N visible
09 Jul ? 05:03:45 30° S 05:05:36 46° ESE 05:10:13 10° NE visible
09 Jul ? 06:42:14 10° WSW 06:46:14 26° NW 06:50:20 10° NNE visible
10 Jul ? 03:48:12 10° SE 03:50:16 13° ESE 03:52:22 10° E visible
10 Jul ? 05:25:30 11° SW 05:29:59 77° WNW 05:34:52 10° NNE visible
10 Jul ? 07:08:32 10° WNW 07:11:16 15° NW 07:14:02 10° N visible
